This demonstration page uses our WeatherBlox Daily Observations layout. Learn more.

Left ArrowRight Arrow

39.12711, -84.51439

Hourly Observations for August 10, 2018

Temp ( °F °C ) Dew Point ( °F °C ) Humidity (%) Winds ( mph kmh ) Pressure ( in mb ) Visibility ( mi km ) Precip ( " mm )
12:53 am 00:53 Clear with Mist and Fog 69 20.6 68 20 96 96 N N/A 29.98 1015 6 10 N/A
1:04 am 01:04 Clear with Mist and Fog 68 20 68 20 100 100 N N/A 29.97 1015 2 3 N/A
1:33 am 01:33 Clear with Mist and Fog 68 20 68 20 100 100 N N/A 29.97 1015 3 5 N/A
1:53 am 01:53 Clear with Mist and Fog 67 19.4 67 19.4 100 100 SSW 3 6 29.96 1015 5 8 N/A
2:06 am 02:06 Clear with Mist and Fog 67 19.4 67 19.4 100 100 SSW 3 6 29.94 1014 2 2 N/A
2:15 am 02:15 Clear with Fog 67 19.4 67 19.4 100 100 N N/A 29.94 1014 1 1 N/A
2:24 am 02:24 Clear with Mist and Fog 68 20 68 20 100 100 N N/A 29.94 1014 2 3 N/A
2:31 am 02:31 Clear with Mist and Fog 68 20 68 20 100 100 N N/A 29.94 1014 4 6 N/A
2:53 am 02:53 Clear with Mist and Fog 67 19.4 67 19.4 100 100 ENE 3 6 29.95 1014 3 5 N/A
3:53 am 03:53 Clear with Mist and Fog 67 19.4 67 19.4 100 100 N N/A 29.97 1015 5 8 N/A
4:53 am 04:53 Clear with Mist and Fog 68 20 68 20 100 100 N N/A 29.98 1015 6 10 N/A
5:53 am 05:53 Clear with Mist and Fog 68 20 68 20 100 100 N N/A 29.96 1015 5 8 N/A
6:24 am 06:24 Clear with Mist and Fog 68 20 68 20 100 100 N N/A 29.94 1014 2 3 N/A
6:35 am 06:35 Clear with Mist and Fog 68 20 68 20 100 100 N N/A 29.94 1014 3 4 N/A
6:45 am 06:45 Clear with Mist and Fog 68 20 68 20 100 100 N N/A 29.94 1014 6 10 N/A
6:53 am 06:53 Sunny with Mist and Fog 69 20.6 69 20.6 100 100 N N/A 29.96 1015 6 10 N/A
7:53 am 07:53 Sunny 69 20.6 69 20.6 100 100 N N/A 29.97 1015 10 16 N/A
8:53 am 08:53 Sunny 72 22.2 71 21.7 97 97 SSW 6 9 29.98 1015 10 16 N/A
9:53 am 09:53 Mostly Cloudy 74 23.3 71 21.7 91 91 N N/A 29.98 1015 10 16 N/A
10:53 am 10:53 Sunny 76 24.4 72 22.2 88 88 S 3 6 29.98 1015 9 14 N/A
11:53 am 11:53 Sunny 80 26.7 73 22.8 79 79 SSW 3 6 29.98 1015 10 16 N/A
12:53 pm 12:53 Partly Cloudy 83 28.3 73 22.8 72 72 SSW 7 11 29.97 1015 10 16 N/A
1:53 pm 13:53 Partly Cloudy 85 29.4 71 21.7 63 63 VRB 3 6 29.95 1014 10 16 N/A
2:53 pm 14:53 Sunny 85 29.4 73 22.8 68 68 SSE 8 13 29.93 1014 10 16 N/A
3:53 pm 15:53 Partly Cloudy 84 28.9 72 22.2 67 67 S 9 15 29.91 1013 10 16 N/A
4:41 pm 16:41 Partly Cloudy with Nearby Thunderstorms 84 28.9 72 22.2 67 67 S 9 15 29.91 1013 10 16 N/A
4:53 pm 16:53 Mostly Cloudy with Nearby Thunderstorms 83 28.3 72 22.2 70 70 S 10 17 29.89 1012 10 16 N/A
5:12 pm 17:12 Mostly Cloudy with Thunderstorms 83 28.3 71 21.7 67 67 SSW 9 15 29.91 1013 10 16 N/A
5:53 pm 17:53 Cloudy with Thunderstorms 77 25 74 23.3 90 90 NE 10 17 29.89 1012 10 16 0.03 0.76
6:45 pm 18:45 Mostly Cloudy with Nearby Thunderstorms 76 24.4 70 21.1 82 82 N N/A 29.91 1013 10 16 0.01 0.25
6:53 pm 18:53 Mostly Cloudy with Nearby Thunderstorms 76 24.4 70 21.1 82 82 NNW 3 6 29.89 1012 10 16 0.01 0.25
7:02 pm 19:02 Mostly Cloudy with Light Rain 76 24.4 70 21.1 82 82 N N/A 29.91 1013 6 10 0.01 0.25
7:53 pm 19:53 Partly Cloudy with Light Rain 75 23.9 73 22.8 94 94 VRB 3 6 29.90 1013 10 16 0.01 0.25
8:53 pm 20:53 Clear 74 23.3 73 22.8 97 97 N N/A 29.91 1013 8 13 N/A
9:53 pm 21:53 Mostly Cloudy with Mist and Fog 72 22.2 72 22.2 100 100 VRB 5 7 29.93 1014 6 10 N/A
10:53 pm 22:53 Clear with Nearby Thunderstorms 72 22.2 72 22.2 100 100 NNE 3 6 29.94 1014 10 16 N/A
11:36 pm 23:36 Mostly Cloudy 73 22.8 71 21.7 94 94 ESE 9 15 29.94 1014 10 16 N/A
11:51 pm 23:51 Mostly Cloudy with Nearby Thunderstorms 72 22 70 21 94 94 VRB 7 11 29.94 1014 7 11 0.02 0.51
11:53 pm 23:53 Cloudy with Nearby Thunderstorms 72 22.2 69 20.6 91 91 ENE 5 7 29.96 1015 5 8 0.04 1.02
11:56 pm 23:56 Cloudy with Strong Thunderstorms 71 21.7 69 20.6 94 94 VRB 6 9 29.94 1014 3 5 0.04 1.02

Powered by AerisWeather